Regional Weather Roundup
Issued by NWS

Home | Current Version | Previous Version | Graphics & Text | Print | Product List | Glossary On
Versions: 1 2 3 4 5 6 7 8 9 10 11 12 13 14 15 16 17 18 19 20 21 22 23 24 25 26 27 28 29 30 31 32 33 34 35 36 37 38 39 40 41 42 43 44 45 46 47 48 49 50
455
ASUS43 KTOP 241408
RWRKS

WEATHER ROUNDUP FOR KANSAS
NATIONAL WEATHER SERVICE GOODLAND KS
800 AM CST TUE JAN 24 2017

NOTE:  "FAIR" INDICATES FEW OR NO CLOUDS BELOW 12,000 FEET WITH NO
SIGNIFICANT WEATHER AND/OR OBSTRUCTIONS TO VISIBILITY.

KSZ001>006-013>018-027>032-041>047-241500-
NORTHWEST KANSAS

CITY           SKY/WX    TMP DP  RH WIND       PRES   REMARKS
GOODLAND       FOG       30  30 100 N13       29.45R VSB 1/4 WCI  20
HAYS           CLEAR     29  28  96 E9        29.42F
HILL CITY      CLOUDY    32  32 100 E9        29.46R FOG
RUSSELL        CLEAR     30  29  96 E10       29.43F WCI  21
$$

KSZ061>065-074>080-084>089-241500-
SOUTHWEST KANSAS

CITY           SKY/WX    TMP DP  RH WIND       PRES   REMARKS
DODGE CITY     CLEAR     39  31  72 SW15      29.43R WCI  31
ELKHART          N/A     41  28  60 W10         N/A
GARDEN CITY    CLEAR     31  28  89 SW8       29.42R
GREAT BEND     CLEAR     31  29  92 E6        29.45S
LIBERAL          N/A     37  27  65 SW13      29.47S WCI  29
PRATT          CLEAR     33  30  92 S10       29.47S WCI  24
$$

KSZ066>073-081>083-090>101-241500-
SOUTHEAST KANSAS

CITY           SKY/WX    TMP DP  RH WIND       PRES   REMARKS
CHANUTE        CLEAR     39  32  76 SE12      29.62F WCI  32
COFFEYVILLE    CLEAR     41  34  76 SE7       29.63R
HUTCHINSON     PTCLDY    35  31  85 SE8       29.48F
MEDICINE LODGE   N/A     35  31  85 SE8       29.48F
NEWTON         PTCLDY    36  32  85 SE14      29.51F WCI  27
PARSONS        CLEAR     42  33  70 SE5       29.64R
WICHITA INTL   PTCLDY    39  33  79 S10       29.51F WCI  32
WICHITA JABRA  CLEAR     38  33  82 SE10      29.51F WCI  31
WICHITA MCCONL CLEAR     38  33  79 S13       29.51F WCI  31
WINFIELD       CLEAR     41  33  73 SE9       29.55F
$$

KSZ007>012-019>026-033>040-048>060-102>105-241500-
NORTHEAST KANSAS

CITY           SKY/WX    TMP DP  RH WIND       PRES   REMARKS
CONCORDIA      CLOUDY    34  32  92 E13       29.53F WCI  25
EMPORIA        CLEAR     34  31  88 E14       29.58F WCI  25
LAWRENCE       CLEAR     31  30  96 E12       29.69F FOG     WCI  22
MANHATTAN      PTCLDY    34  30  85 E9        29.59F
MARYSVILLE     CLOUDY    32  30  93 E14G25    29.61S WCI  22
OLATHE IND     CLEAR     33  30  88 E15G21    29.69S WCI  23
OLATHE EXE     CLEAR     31  30  96 E10       29.69F WCI  22
SALINA         PTCLDY    34  30  85 E13G21    29.52F WCI  25
TOPEKA BILLARD CLEAR     34  30  85 E14       29.67S WCI  25
TOPEKA FORBES  CLEAR     34  31  88 E12       29.65S WCI  25
$$




USA.gov is the U.S. government's official web portal to all federal, state and local government web resources and services.